OV1-14 R/B, 3177

Orbit data source: Space-Track

OV1-14 R/B, 3177 is space debris originally from a launch on Sat, 06 Apr 1968 UTC launched from the Air Force Western Test Range (AFWTR). Debris objects in space refer to the collection of defunct objects orbiting the Earth. Examples of debris include non-operational satellites, rocket bodies, and fragments generated from explosions, collisions, or faulty payload assembly.

Loading next visibility...
Identifier
3177, 1968-026C
Orbit
Active
Country
Flag of USUS
Related business
Manufacturer
UTC
Mission
Spacecraft
Bus & Motor
FW4, Unknown motor
Mass
125 kg wet, 125 kg dry
Launch date (UTC)
1968-04-06 (58 years ago)
Launch vehicle
Unknown
Launch site
Air Force Western Test Range (AFWTR)
Object type
Payload
Rocket body
Debris
Shape & HBR
Unknown
Radar Cross Section
Medium (>0.1 m² and <1 m²)

Expand to show TLE details & history
Last TLE update: 18 hours ago

TLE from 18 hours ago
0 OV1-14 R/B
1 03177U 68026C   25293.88304753  .00000340  00000-0  50538-3 0  9990
2 03177  99.9739 297.5237 4011007  97.9183 346.3105  6.98027060460506
Epoch: 2025-10-20T21:11Z
TLE epoch observation values (Epoch: 2025-10-20T21:11:35.306Z)
Latitude
62.46962°
Longitude
-69.55669°
Altitude
909.605 km
Speed
8.669 km/s
True Right ascension
18h 31m 40s
True Declination
62° 19' 53"
Sunlit
Object was in daylight at epoch
Visualization orbit readout
Latitude
Unknown
Longitude
Unknown
Altitude
Unknown
Speed
Unknown
Apparent Right ascension
Unknown
Apparent Declination
Unknown
Sunlit
N/A
Visualization observer readout
Local Sidereal Time
10:27:55
Azimuth
Unknown
Elevation
Unknown
Doppler factor
Unknown
Orbital elements
Apogee altitude
9,822.744 km
Perigee altitude
546.916 km
Semi-major axis
11,562.967 km
Eccentricity
0.4011
Inclination
99.9739°
RAAN
297.5237°
Arg. of periapsis
97.9183°
True anomaly
326.19283°
Mean anomaly
346.3105°
Eccentric anomaly
337.52527°
Mean motion
1.74558 °/min
Orbital period
206.24 mins
BSTAR
0.00050538
Loading maneuver chart data...
Computing Atmospheric mass density...
Loading historical data...
Loading historical data...
Loading historical data...
Loading historical data...
Loading historical data...
Loading historical data...
Loading historical data...
Other satellites on launch #26 in the year 1968 (1968-04-06 UTC)

Documentation

Showing up to 5 results
|